Weather History for Lancaster, OH

Change the Weather History Date:

Monday, October 28, 2013

  Actual Average Record
Temperature  
Mean Temperature 44 °F -  
Max Temperature 62 °F 62 °F 81 °F (1963)
Min Temperature 27 °F 35 °F 19 °F (1976)
Degree Days  
Heating Degree Days 20    
Moisture  
Dew Point 33 °F    
Average Humidity 65    
Maximum Humidity 92    
Minimum Humidity 34    
Precipitation  
Precipitation 0.00 in - - ()
Sea Level Pressure  
Sea Level Pressure 30.23 in    
Wind  
Wind Speed 1 mph (North)    
Max Wind Speed 5 mph    
Max Gust Speed -    
Visibility 7 miles    
Events      
Averages and records for this station are not official NWS values.
T = Trace of Precipitation, MM = Missing Value Source: NWS Daily Summary

Daily Weather History Graph

Daily Weather History Graph

Search for Another Location

Airport:

Trip Planner

Search our weather history database for the weather conditions in past years. The results will help you decide how hot, cold, wet, or windy it might be!

Date:

Astronomy

Oct. 28, 2013 Rise Set
Actual Time 7:55 AM EDT 6:33 PM EDT
Civil Twilight 7:27 AM EDT 7:00 PM EDT
Nautical Twilight 6:55 AM EDT 7:32 PM EDT
Astronomical Twilight 6:24 AM EDT 8:03 PM EDT
Moon 1:47 AM EDT (10/28) 3:13 PM EDT (10/28)
Length of Visible Light 11h 33m
Length of Day
10h 38m
Waning Crescent, 34% of the Moon is Illuminated
Oct 28
Waning Crescent
Nov 3
New
Nov 10
First Quarter
Nov 17
Full
Nov 25
Last Quarter

Hourly Weather History & Observations

Time (EDT) Temp. Windchill Dew Point Humidity Pressure Visibility Wind Dir Wind Speed Gust Speed Precip Events Conditions
12:53 AM 30.9 °F - 28.9 °F 92% 30.12 in 10.0 mi Calm Calm - N/A   Clear
1:53 AM 30.0 °F - 28.0 °F 92% 30.13 in 10.0 mi Calm Calm - N/A   Clear
2:53 AM 28.9 °F - 27.0 °F 92% 30.13 in 10.0 mi Calm Calm - N/A   Clear
3:53 AM 28.9 °F - 27.0 °F 92% 30.14 in 10.0 mi Calm Calm - N/A   Clear
4:53 AM 28.0 °F - 26.1 °F 92% 30.16 in 8.0 mi Calm Calm - N/A   Clear
5:53 AM 28.0 °F - 25.0 °F 88% 30.19 in 9.0 mi Calm Calm - N/A   Clear
6:53 AM 27.0 °F - 25.0 °F 92% 30.21 in 10.0 mi Calm Calm - N/A   Clear
7:53 AM 27.0 °F - 25.0 °F 92% 30.23 in 9.0 mi Calm Calm - N/A   Clear
8:53 AM 32.0 °F - 30.0 °F 92% 30.25 in 8.0 mi Calm Calm - N/A   Clear
9:53 AM 39.9 °F - 36.0 °F 86% 30.26 in 9.0 mi Calm Calm - N/A   Clear
10:53 AM 48.0 °F - 37.9 °F 68% 30.26 in 10.0 mi Calm Calm - N/A   Clear
11:53 AM 55.0 °F - 37.0 °F 51% 30.27 in 10.0 mi Calm Calm - N/A   Clear
12:53 PM 57.0 °F - 36.0 °F 45% 30.26 in 10.0 mi Calm Calm - N/A   Clear
1:53 PM 59.0 °F - 36.0 °F 42% 30.24 in 10.0 mi SE 4.6 mph - N/A   Clear
2:53 PM 59.0 °F - 33.1 °F 38% 30.24 in 10.0 mi Calm Calm - N/A   Clear
3:53 PM 61.0 °F - 34.0 °F 36% 30.23 in 4.0 mi Calm Calm - N/A   Haze
4:14 PM 62.6 °F - 33.8 °F 34% 30.22 in 2.0 mi North 4.6 mph - N/A   Haze
4:24 PM 60.8 °F - 33.8 °F 36% 30.22 in 3.0 mi North 3.5 mph - N/A   Haze
4:53 PM 62.1 °F - 33.1 °F 34% 30.23 in 9.0 mi Calm Calm - N/A   Partly Cloudy
5:31 PM 59.0 °F - 35.6 °F 42% 30.22 in 2.5 mi Calm Calm - N/A   Haze
5:33 PM 57.2 °F - 35.6 °F 44% 30.22 in 1.5 mi North 3.5 mph - N/A   Haze
5:37 PM 57.2 °F - 35.6 °F 44% 30.22 in 0.8 mi North 3.5 mph - N/A   Haze
5:46 PM 57.2 °F - 35.6 °F 44% 30.23 in 1.2 mi North 4.6 mph - N/A   Haze
5:50 PM 57.2 °F - 35.6 °F 44% 30.23 in 2.5 mi North 4.6 mph - N/A   Haze
5:53 PM 57.9 °F - 36.0 °F 44% 30.24 in 5.0 mi North 3.5 mph - N/A   Haze
5:58 PM 57.2 °F - 35.6 °F 44% 30.23 in 1.8 mi NNW 3.5 mph - N/A   Haze
6:08 PM 55.4 °F - 35.6 °F 47% 30.23 in 3.0 mi NNW 4.6 mph - N/A   Haze
6:53 PM 45.0 °F 43.5 °F 36.0 °F 71% 30.27 in 10.0 mi North 3.5 mph - N/A   Clear
7:53 PM 42.1 °F - 35.1 °F 76% 30.29 in 10.0 mi Calm Calm - N/A   Clear
8:53 PM 39.0 °F - 35.1 °F 86% 30.29 in 7.0 mi Calm Calm - N/A   Clear
9:53 PM 36.0 °F - 33.1 °F 89% 30.30 in 9.0 mi Calm Calm - N/A   Clear
10:53 PM 35.1 °F - 33.1 °F 92% 30.32 in 10.0 mi Calm Calm - N/A   Clear
11:53 PM 35.1 °F - 32.0 °F 89% 30.32 in 10.0 mi Calm Calm - N/A   Clear